sat.trackr.live / text

‹ back to catalog

QIANFAN-201

NORAD 69800 · 2026-153A

PAYLOAD ACTIVE UNKNOWN

§ Identity

Operator
Country
PRC
Launch date
2026-07-04
Launch site
TAISC
Launch vehicle
Mass (kg)
RCS (m²)

External: N2YO · Heavens-Above · Gunter

§ Orbital elements

Epoch: 2026-09-20T03:52:36.936768Z

Period
102.84 min
Inclination
88.9977°
Eccentricity
0.0005019
Mean motion
14.00290734 rev/d
Perigee alt
889.1 km
Apogee alt
896.4 km
Semi-major
7,270.9 km
B*
2.3590e-5
RAAN
351.4996°
Arg perigee
9.6439°
Mean anomaly
350.4835°
Rev number
1,100

§ Raw data

QIANFAN-2011 69800U 26153A   26263.16153862  .00000049  00000+0  23590-4 0  99962 69800  88.9977 351.4996 0005019   9.6439 350.4835 14.00290734 11006

JSON: /api/v1/satellites/69800 · /tle

For live sub-satellite position, see the globe view (requires WebGL).

§ Visibility from observer

Set your observer location to see the next 7 days of passes ≥ 10°. The values pass through the URL so the page stays shareable.

No JS? Fill the form by hand. The geolocation button needs JavaScript.